www.pogodaiklimat.ru

Погода и климат >> Архив погоды >> Венгрия >> Порозло


ПОГОДА в Порозло

  • Прогноз погоды в Порозло
  • Монитор погоды в Порозло

АРХИВ ПОГОДЫ в Порозло

Время (UTC), дата Ветер
(напр.,м/с)
 
Видим.   Явления Облачность Т
(С)
Тd
(С)
f
(%)
Тe
(С)
Тes
(С)
Комфортность P
(гПа)
Po
(гПа)
Тmin
(С)
Tmax
(С)
R
(мм)
R24
(мм)
S
(см)
16 14.03 З 6
{9}
н/о н/о +8.9 -1.0 50 +6 +6 1008.6 997.6
17 14.03 ЮЗ 4 н/о н/о +7.5 -0.5 57 +5 +5 1008.4 997.4
18 14.03 ЮЗ 2 н/о н/о +6.4 -0.6 61 +4 +4 1008.3 997.2 +11.8
19 14.03 Ю 2 н/о н/о +5.4 -0.4 66 +3 +3 1007.8 996.7
20 14.03 Ю 2 н/о н/о +5.3 -1.0 64 +3 +3 1007.2 996.1
21 14.03 Ю 4 н/о н/о +5.1 -1.6 62 +1 +1 1006.8 995.7
22 14.03 Ю 4 н/о н/о +5.4 -1.5 61 +2 +2 1006.4 995.3
23 14.03 Ю 4 н/о н/о +5.9 -1.3 60 +2 +2 1005.8 994.7
00 15.03 Ю 5
{7}
н/о н/о +6.2 -1.4 58 +2 +2 1005.4 994.3
01 15.03 Ю 5
{9}
н/о н/о +6.6 -1.1 58 +3 +3 1004.4 993.4
02 15.03 Ю 5
{8}
н/о н/о +6.3 -1.8 56 +3 +3 1004.3 993.3
03 15.03 ЮЗ 4
{7}
н/о н/о +6.2 -1.7 57 +3 +3 1004.0 993.0
04 15.03 ЮЗ 2 н/о н/о +5.4 -1.5 61 +3 +3 1004.4 993.3
05 15.03 ЮЗ 4 н/о н/о +4.6 -1.8 63 +1 +1 1004.5 993.4
06 15.03 ЮЗ 3 н/о н/о +5.0 -0.4 68 +2 +2 1005.1 994.0 +4.4
07 15.03 ЮЗ 5
{8}
н/о н/о +6.7 +1.4 69 +3 +3 1005.4 994.4
08 15.03 З 8
{10}
н/о н/о +8.1 +3.0 70 +4 +4 1005.5 994.5
09 15.03 З 8
{12}
н/о н/о +9.8 +2.4 60 +6 +6 1005.9 995.0
10 15.03 З 7
{11}
н/о н/о +9.7 +2.8 62 +6 +6 1006.4 995.5
11 15.03 З 8
{11}
н/о н/о +11.8 +1.4 49 +9 +9 1006.5 995.6
12 15.03 З 8
{12}
н/о н/о +11.9 -0.3 43 +9 +9 1006.1 995.3
13 15.03 З 6
{11}
н/о н/о +11.9 0.0 44 +10 +10 1006.2 995.4
14 15.03 З 8
{11}
н/о н/о +12.8 -2.3 35 +10 +10 1006.5 995.7
15 15.03 З 8
{11}
н/о н/о +11.9 -3.1 35 +9 +9 1006.8 995.9
16 15.03 З 6
{11}
н/о н/о +11.1 -2.0 40 +9 +9 1007.4 996.5
17 15.03 ЮЗ 3
{8}
н/о н/о +8.4 -1.1 51 +6 +6 1007.8 996.8
18 15.03 ЮЗ 3 н/о н/о +7.4 -1.0 55 +5 +5 1008.0 997.0 +12.9
19 15.03 ЮЗ 3 н/о н/о +8.1 -0.4 55 +6 +6 1008.1 997.1
20 15.03 З 8
{11}
н/о н/о +8.9 +1.8 61 +5 +5 1008.2 997.2
21 15.03 З 4
{11}
н/о н/о +7.8 +2.5 69 +5 +5 1008.1 997.1
22 15.03 ЮЗ 4 н/о н/о +7.0 +3.8 80 +4 +4 1007.6 996.6
23 15.03 ЮЗ 4
{8}
н/о н/о +6.8 +3.9 82 +3 +3 1007.2 996.1
00 16.03 ЮЗ 4
{8}
н/о н/о +6.8 +4.3 84 +3 +3 1006.5 995.5 0.1
01 16.03 ЮЗ 5
{10}
н/о н/о +6.5 +4.8 89 +2 +2 1005.5 994.5
02 16.03 ЮЗ 5
{9}
н/о н/о +6.5 +5.5 93 +2 +2 1003.9 992.9
03 16.03 ЮЗ 4
{9}
н/о н/о +6.6 +5.2 91 +3 +3 1003.2 992.2
04 16.03 З 5
{7}
н/о н/о +6.5 +5.5 93 +2 +2 1004.9 993.9
05 16.03 З 6
{10}
н/о н/о +7.3 +5.9 91 +3 +3 1006.0 995.0
06 16.03 З 9
{13}
н/о н/о +8.3 +2.5 67 +4 +4 1006.2 995.2 +6.2 0.1
07 16.03 З 8
{13}
н/о н/о +8.0 +2.7 69 +3 +3 1007.2 996.2
08 16.03 З 9
{13}
н/о н/о +9.7 +1.8 58 +6 +6 1008.3 997.3
09 16.03 З 9
{13}
н/о н/о +10.1 -0.4 48 +6 +6 1008.8 997.9
10 16.03 З 9
{14}
н/о н/о +10.4 -0.4 47 +7 +7 1009.5 998.6
11 16.03 З 8
{12}
н/о н/о +11.1 -0.7 44 +8 +8 1009.8 998.9
12 16.03 З 8
{14}
н/о н/о +11.5 +0.9 48 +8 +8 1009.6 998.7
13 16.03 З 8
{14}
н/о н/о +11.1 -0.7 44 +8 +8 1010.1 999.2
14 16.03 З 9
{15}
н/о н/о +11.2 +0.9 49 +8 +8 1010.2 999.3
15 16.03 З 9
{14}
н/о н/о +10.5 +0.8 51 +7 +7 1010.7 999.8
16 16.03 З 9
{13}
н/о н/о +9.9 +0.8 53 +6 +6 1011.2 1000.2
17 16.03 З 7
{13}
н/о н/о +8.8 +1.9 62 +5 +5 1011.9 1000.9
18 16.03 З 7
{12}
н/о н/о +8.5 +2.1 64 +5 +5 1012.4 1001.4 +11.9
19 16.03 З 8
{11}
н/о н/о +8.3 +3.2 70 +4 +4 1012.8 1001.7
20 16.03 З 6
{10}
н/о н/о +7.6 +3.6 76 +3 +3 1012.8 1001.7
21 16.03 З 5
{9}
н/о н/о +7.5 +3.4 75 +4 +4 1012.9 1001.8
22 16.03 З 5
{10}
н/о н/о +7.6 +3.5 75 +4 +4 1013.5 1002.4
23 16.03 З 5
{8}
н/о н/о +7.4 +3.6 77 +4 +4 1013.6 1002.5
00 17.03 ЮЗ 3 н/о н/о +7.0 +3.8 80 +4 +4 1013.3 1002.2
01 17.03 ЮЗ 2 н/о н/о +6.8 +3.9 82 +5 +5 1012.7 1001.6
02 17.03 Ю 1 н/о н/о +6.7 +4.0 83 +6 +6 1012.8 1001.7
03 17.03 ЮВ 2 н/о н/о +6.1 +3.8 85 +4 +4 1012.5 1001.4
04 17.03 Ю 2 н/о н/о +5.5 +3.2 85 +3 +3 1012.5 1001.3
05 17.03 Ю 2 н/о н/о +4.6 +2.5 86 +2 +2 1012.3 1001.1
06 17.03 Ю 3 н/о н/о +6.1 +3.3 82 +3 +3 1012.3 1001.2 +4.6
07 17.03 Ю 4 н/о н/о +7.8 +3.8 76 +5 +5 1012.5 1001.4
08 17.03 Ю 3 н/о н/о +11.1 +5.2 67 +9 +9 1012.5 1001.6
09 17.03 ЮЗ 4 н/о н/о +13.0 +5.7 61 +11 +11 1012.4 1001.5
10 17.03 ЮЗ 4
{8}
н/о н/о +15.9 +6.9 55 +15 +15 1012.0 1001.2
11 17.03 ЮЗ 4
{8}
н/о н/о +17.7 +6.9 49 +17 +17 1011.4 1000.7
12 17.03 ЮЗ 4
{8}
н/о н/о +19.4 +6.2 42 +20 +20 1010.5 999.9
13 17.03 ЮЗ 5
{7}
н/о н/о +20.9 +4.9 35 +22 +22 комфорт 1009.8 999.2
14 17.03 Ю 4
{9}
н/о н/о +20.6 +6.2 39 +22 +22 комфорт 1009.1 998.5
15 17.03 Ю 5
{7}
н/о н/о +21.3 +5.6 36 +22 +22 комфорт 1008.4 997.9
16 17.03 Ю 3 н/о н/о +20.3 +5.9 39 +21 +21 комфорт 1008.0 997.4
17 17.03 Ю 3 н/о н/о +18.0 +6.2 46 +18 +18 1007.7 997.1
18 17.03 Ю 3 н/о н/о +16.4 +6.2 51 +16 +16 1007.8 997.1 +21.5
19 17.03 ЮВ 3 н/о н/о +14.8 +4.8 51 +14 +14 1007.8 997.0
20 17.03 ЮВ 3 н/о н/о +13.4 +4.3 54 +12 +12 1007.6 996.8
21 17.03 Ю 4 н/о н/о +12.6 +3.8 55 +11 +11 1007.1 996.3
22 17.03 Ю 3 н/о н/о +11.8 +4.1 59 +10 +10 1007.2 996.3
23 17.03 Ю 3
{7}
н/о н/о +11.0 +3.3 59 +9 +9 1007.7 996.8
00 18.03 Ю 3 н/о н/о +10.8 +3.4 60 +9 +9 1007.3 996.4
01 18.03 Ю 4 н/о н/о +10.9 +4.1 63 +9 +9 1007.2 996.3
02 18.03 Ю 3 н/о н/о +10.7 +4.8 67 +9 +9 1006.9 996.0
03 18.03 ЮЗ 5
{8}
н/о н/о +10.0 +5.0 71 +7 +7 1007.0 996.1
04 18.03 ЮЗ 4
{8}
н/о н/о +8.7 +5.3 79 +6 +6 1007.9 996.9
05 18.03 ЮЗ 3
{7}
н/о н/о +7.3 +5.1 86 +4 +4 1009.2 998.1
06 18.03 ЮЗ 1 н/о н/о +8.6 +4.6 76 +8 +8 1010.0 999.0 +6.8
07 18.03 З 5
{7}
н/о н/о +11.3 +3.6 59 +9 +9 1010.9 1000.0
08 18.03 С 4
{7}
н/о н/о +13.1 +4.5 56 +12 +12 1011.3 1000.4
09 18.03 З 5
{7}
н/о н/о +12.1 +3.3 55 +10 +10 1012.6 1001.7
10 18.03 С 2
{7}
н/о н/о +12.2 +5.1 62 +11 +11 1013.0 1002.1
11 18.03 СВ 3
{7}
н/о н/о +14.4 +5.2 54 +14 +14 1013.1 1002.3
12 18.03 С 3
{7}
н/о н/о +13.8 +4.7 54 +13 +13 1013.3 1002.5
13 18.03 С 3
{7}
н/о н/о +13.7 +4.0 52 +13 +13 1013.4 1002.5
14 18.03 С 5
{8}
н/о н/о +12.2 +2.4 51 +10 +10 1013.7 1002.8
15 18.03 СЗ 6
{8}
н/о н/о +11.2 +2.5 55 +8 +8 1014.3 1003.3
16 18.03 СЗ 6
{10}
н/о н/о +9.0 +3.4 68 +5 +5 1015.4 1004.3
17 18.03 СЗ 5
{9}
н/о н/о +8.4 +3.3 70 +5 +5 1015.9 1004.8
18 18.03 СЗ 4
{8}
н/о н/о +7.7 +2.8 71 +5 +5 1017.1 1006.0 +15.0
19 18.03 СЗ 4
{7}
н/о н/о +7.6 +2.7 71 +4 +4 1018.0 1006.9
20 18.03 СЗ 4 н/о н/о +7.0 +3.4 78 +4 +4 1018.8 1007.6
21 18.03 СЗ 2
{7}
н/о н/о +6.4 +2.8 78 +4 +4 1019.2 1008.0
22 18.03 СЗ 2 н/о н/о +5.9 +3.4 84 +3 +3 1019.7 1008.5
23 18.03 С 1 н/о н/о +6.0 +3.2 82 +5 +5 1020.2 1009.0
00 19.03 СЗ 1 н/о н/о +4.9 +2.9 87 +4 +4 1020.4 1009.1
01 19.03 штиль 0 н/о н/о +3.4 +2.5 94 +2 +2 1020.6 1009.3
02 19.03 З 1 н/о н/о +2.5 +2.5 100 +1 +1 1020.9 1009.5
03 19.03 С 1 н/о н/о +2.2 +2.2 100 0 0 1021.1 1009.7
04 19.03 СЗ 1 н/о н/о +2.0 +1.7 98 0 0 1021.8 1010.4
05 19.03 С 1 н/о н/о +1.4 +1.4 100 -1 -1 1022.1 1010.7
06 19.03 СЗ 1 н/о н/о +3.0 +2.1 94 +1 +1 1022.4 1011.0 +1.3
07 19.03 СВ 1 н/о н/о +6.2 +3.4 82 +5 +5 1022.4 1011.2
08 19.03 СВ 3 н/о н/о +7.9 +1.9 66 +5 +5 1023.1 1011.9
09 19.03 СВ 4
{7}
н/о н/о +8.7 +0.4 56 +6 +6 1023.2 1012.0
10 19.03 С 5
{8}
н/о н/о +10.1 -1.0 46 +8 +8 1023.5 1012.4
11 19.03 С 5
{10}
н/о н/о +10.6 -2.1 41 +8 +8 1023.3 1012.2
12 19.03 С 4
{9}
н/о н/о +10.8 -1.9 41 +9 +9 1023.0 1011.9
13 19.03
{7}
н/о н/о +11.0 -2.4 39 1023.1 1012.0
14 19.03 С 2 н/о н/о +10.6 -2.8 39 +10 +10 1023.3 1012.2
15 19.03 С 3 н/о н/о +10.8 -2.6 39 +9 +9 1023.5 1012.4
16 19.03 СВ 2 н/о н/о +10.4 -2.9 39 +10 +10 1024.0 1012.9
17 19.03 СВ 1 н/о н/о +9.4 -3.2 41 +9 +9 1024.6 1013.5
18 19.03 С 2 н/о н/о +8.2 -2.4 47 +7 +7 1025.4 1014.2 +11.1
19 19.03 С 2 н/о н/о +6.9 -2.3 52 +5 +5 1026.2 1014.9
20 19.03 СВ 4 н/о н/о +6.7 -2.7 51 +4 +4 1026.7 1015.4
21 19.03 С 4 н/о н/о +6.0 -3.4 51 +3 +3 1027.0 1015.7
22 19.03 С 3
{7}
н/о н/о +5.1 -3.7 53 +2 +2 1027.5 1016.2
23 19.03 С 4 н/о н/о +4.3 -3.5 57 +1 +1 1027.9 1016.5
00 20.03 С 4
{7}
н/о н/о +4.5 -3.3 57 +1 +1 1028.4 1017.0
01 20.03 СВ 4
{8}
н/о н/о +4.3 -3.9 55 +1 +1 1028.6 1017.2
02 20.03 СВ 4
{7}
н/о н/о +3.8 -4.6 54 -0 -0 1029.0 1017.6
03 20.03 СВ 4
{7}
н/о н/о +3.6 -4.4 56 -0 -0 1029.1 1017.7
04 20.03 СВ 4
{7}
н/о н/о +2.5 -4.5 60 -2 -2 1029.6 1018.1
05 20.03 С 1 н/о н/о -1.0 -5.4 72 -3 -3 1030.3 1018.7
06 20.03 С 2 н/о н/о +3.7 -3.6 59 +1 +1 1030.8 1019.4 -1.0
07 20.03 С 6
{10}
н/о н/о +7.2 -4.8 42 +4 +4 1031.1 1019.8
08 20.03 СВ 7
{13}
н/о н/о +8.3 -5.2 38 +5 +5 1031.6 1020.3
09 20.03 С 6
{12}
н/о н/о +9.7 -4.3 37 +7 +7 1031.8 1020.6
10 20.03 С 6
{11}
н/о н/о +9.9 -6.0 32 +7 +7 1032.0 1020.8
11 20.03
{10}
н/о н/о +11.2 -6.6 28 1031.8 1020.7
12 20.03 С 4
{8}
н/о н/о +12.0 -6.9 26 +11 +11 1031.6 1020.5
13 20.03 С 4
{10}
н/о н/о +12.2 -7.2 25 +11 +11 1031.3 1020.2
14 20.03 СВ 5
{10}
н/о н/о +12.1 -7.3 25 +10 +10 1031.3 1020.2
15 20.03 СВ 3
{8}
н/о н/о +11.9 -7.0 26 +11 +11 1031.4 1020.3
16 20.03 СВ 4
{7}
н/о н/о +10.9 -6.4 29 +9 +9 1031.8 1020.6
17 20.03 СВ 2 н/о н/о +8.3 -6.3 35 +7 +7 1032.5 1021.2
18 20.03 СВ 1 н/о н/о +6.6 -6.7 38 +6 +6 1033.0 1021.7 +12.5
19 20.03 С 1 н/о н/о +3.0 -6.7 49 +2 +2 1033.8 1022.3
20 20.03 СВ 3 н/о н/о +4.0 -6.0 48 +1 +1 1034.3 1022.8
21 20.03 СВ 3 н/о н/о +3.5 -6.2 49 0 0 1034.6 1023.1
22 20.03 В 1 н/о н/о +1.9 -6.2 55 +1 +1 1035.1 1023.5
23 20.03 В 1 н/о н/о +1.1 -5.8 60 -0 -0 1035.4 1023.8
00 21.03 СЗ 1 н/о н/о -2.8 -7.7 69 -5 -5 1035.9 1024.1
01 21.03 СЗ 1 н/о н/о -2.3 -6.7 72 -4 -4 1035.5 1023.8
02 21.03 СЗ 1 н/о н/о -3.3 -7.3 74 -5 -5 1035.4 1023.6
03 21.03 СЗ 1 н/о н/о -4.1 -8.0 74 -6 -6 1035.4 1023.6
04 21.03 СЗ 2 н/о н/о -4.4 -8.0 76 -8 -8 1035.6 1023.8
05 21.03 штиль 0 н/о н/о -4.4 -8.0 76 -5 -5 1036.2 1024.4
06 21.03 С 1 н/о н/о -1.5 -5.3 75 -3 -3 1036.7 1025.0 -4.5
07 21.03 С 1 н/о н/о +2.8 -3.3 64 +2 +2 1036.5 1025.0
08 21.03 С 2 н/о н/о +7.9 -3.6 44 +7 +7 1036.5 1025.2
09 21.03 СЗ 1 н/о н/о +10.1 -3.9 37 +10 +10 1036.3 1025.1
10 21.03 ЮЗ 2 н/о н/о +11.2 -4.9 32 +11 +11 1036.0 1024.8
11 21.03 З 3 н/о н/о +12.6 -5.4 28 +12 +12 1035.4 1024.3
12 21.03 З 3
{7}
н/о н/о +13.5 -5.6 26 +13 +13 1034.6 1023.5
13 21.03 СЗ 3 н/о н/о +13.9 -5.8 25 +13 +13 1033.8 1022.7
14 21.03 З 3 н/о н/о +14.0 -6.2 24 +13 +13 1033.2 1022.1
15 21.03 З 3 н/о н/о +14.1 -6.2 24 +14 +14 1032.7 1021.7

 

Местоположение метеостанции Порозло (Венгрия): широта 47.65 долгота 20.63 высота над уровнем моря 92 м.

В архиве по умолчанию представлена погода в Порозло за последнюю неделю. Архивные данные за месяц целиком и за предыдущие месяцы, начиная с января 2011 года, Вы можете получить, выбрав интересующий диапазон дат из раскрывающегося списка и нажав кнопку "Ввод!".


*Определитесь, кто Вы:
робот инопланетянин человек

Внимание! Время в таблицах - всемирное. Для получения местного времени необходимо прибавить поправку, которая равна 1 ч.

Смотрите также архив погоды в соседних городах и на ближайших метеорологических станциях:

Погода в Эгере (Венгрия) (34 км)
Погода в Мишкольце (Венгрия) (51 км)
Погода на Кекеше (Венгрия) (52 км)
Погода в Сольноке (Венгрия) (66 км)
Погода в Дебрецене (Венгрия) (75 км)
Погода в Йосвафо (Венгрия) (93 км)
Погода в Сечене (Польша) (98 км)
Погода в Ньиредьхазе (Венгрия) (100 км)
Погода в Лученце (Словакия) (101 км)
Погода в Кечкемете (Венгрия) (105 км)

Пояснения к столбцам:

Ветер - указаны скорость ветра в м/с - средняя за 10 мин, порывы в срок и между сроками (в фигурных скобках) и направление, откуда дует ветер: С - северный, СВ - северо-восточный, В - восточный, ЮВ - юго-восточный, Ю - южный, ЮЗ - юго-западный, З - западный, СЗ - северо-западный.
Видимость - горизонтальная дальность видимости в метрах или километрах. При видимости от 1 до 10 км при отсутствии осадков обычно наблюдается дымка, при ухудшении видимости до 1 км и менее - туман. В сухую погоду видимость может ухудшаться дымом, пылью или мглою.
Явления - указаны атмосферные явления, наблюдавшиеся в срок или в последний час перед сроком; фигурными скобками обозначены явления, наблюдавшиеся между сроками (за 1-3 часа до срока); квадратными скобками обозначены град или гололедные отложения с указанием их диаметра в мм.
Облачность - указаны через наклонную черту общая и нижняя облачность в баллах и высота нижней границы облаков в метрах; квадратными скобками обозначены формы облаков: Ci - перистые, Cs - перисто-слоистые, Cc - перисто-кучевые, Ac - высококучевые, As - высокослоистые, Sc - слоисто-кучевые, Ns - слоисто-дождевые, Cu - кучевые, Cb - кучево-дождевые. Подробнее классификацию облаков см. в Атласе облаков (PDF).
T - Температура воздуха - температура, измеренная на высоте 2 м над землей.
Td - Температура точки росы - температура, при понижении до которой содержащийся в воздухе водяной пар достигнет насыщения.
f - Относительная влажность воздуха - влажноcть воздуха, измеренная на высоте 2 м над землей.
Te - Эффективная температура - температура, которую ощущает одетый по сезону человек в тени. Характеристика душности погоды. При расчете учитывается влияние влажности воздуха и скорости ветра на теплоощущения человека.
Tes - Эффективная температура на солнце - температура, которую ощущает человек, с поправкой на солнечный нагрев. Характеристика знойности погоды. Зависит от высоты солнца над горизонтом, облачности и скорости ветра. Ночью, в пасмурную погоду, а также при ветре 12 м/с и более поправка равна нулю.
P - Атмосферное давление - приведенное к уровню моря атмосферное давление.
Po - Атмосферное давление - измеренное на уровне метеостанции атмосферное давление.
Tmin - Минимальная температура - минимум температуры воздуха на высоте 2 м над землей.
Tmax - Максимальная температура - максимум температуры воздуха на высоте 2 м над землей.
R - Количество осадков - Количество выпавших осадков за период времени, мм. При наведении курсора мыши на число - период времени, за который выпало указанное количество осадков.
R24 - Количество осадков - Количество выпавших осадков за 24 часа, мм.
S - Снежный покров - Высота снежного покрова, см. При наведении курсора мыши на число - состояние снежного покрова и степень покрытия местности в баллах.